Change the Weather History Date:

Friday, June 8, 2012

  Actual Average Record
Temperature  
Mean Temperature 58 °F -  
Max Temperature 71 °F 65 °F 89 °F (1999)
Min Temperature 46 °F 52 °F 42 °F (2002)
Degree Days  
Heating Degree Days 6    
Growing Degree Days 8 (Base 50)    
Moisture  
Dew Point 54 °F    
Average Humidity 85    
Maximum Humidity 100    
Minimum Humidity 64    
Precipitation  
Precipitation 0.03 in - - ()
Sea Level Pressure  
Sea Level Pressure 29.87 in    
Wind  
Wind Speed 6 mph (SSW)    
Max Wind Speed 16 mph    
Max Gust Speed 22 mph    
Visibility 7 miles    
Events Thunderstorm    
Averages and records for this station are not official NWS values.
T = Trace of Precipitation, MM = Missing Value Source: NWS Daily Summary

Daily Weather History Graph

Daily Weather History Graph

Search for Another Location

Airport or City:

Trip Planner

Search our weather history database for the weather conditions in past years. The results will help you decide how hot, cold, wet, or windy it might be!

Date:

Astronomy

Jun. 08, 2012 Rise Set
Actual Time 5:05 AM EDT 8:15 PM EDT
Civil Twilight 4:30 AM EDT 8:49 PM EDT
Nautical Twilight 3:47 AM EDT 9:33 PM EDT
Astronomical Twilight 2:54 AM EDT 10:26 PM EDT
Moon 11:33 PM EDT (6/8) 9:44 AM EDT (6/8)
Length of Visible Light 16h 18m
Length of Day
15h 10m
Waning Gibbous, 77% of the Moon is Illuminated
Jun 8
Waning Gibbous
Jun 11
Last Quarter
Jun 19
New
Jun 26
First Quarter
Jul 3
Full

Hourly Weather History & Observations

Time (EDT) Temp. Windchill Dew Point Humidity Pressure Visibility Wind Dir Wind Speed Gust Speed Precip Events Conditions
12:15 AM 50.0 °F - 48.2 °F 94% 29.95 in 10.0 mi Calm Calm - N/A   Clear
12:35 AM 48.2 °F - 46.4 °F 93% 29.95 in 10.0 mi Calm Calm - N/A   Clear
12:55 AM 48.2 °F - 46.4 °F 93% 29.94 in 10.0 mi Calm Calm - N/A   Clear
1:15 AM 48.2 °F - 46.4 °F 93% 29.94 in 10.0 mi Calm Calm - N/A   Clear
1:35 AM 48.2 °F - 48.2 °F 100% 29.94 in 10.0 mi Calm Calm - N/A   Clear
1:55 AM 46.4 °F - 44.6 °F 93% 29.94 in 10.0 mi Calm Calm - N/A   Clear
2:15 AM 46.4 °F 45.2 °F 44.6 °F 93% 29.94 in 10.0 mi North 3.5 mph - N/A   Clear
2:35 AM 46.4 °F - 44.6 °F 93% 29.93 in 4.0 mi Calm Calm - N/A   Mostly Cloudy
2:55 AM 46.4 °F - 44.6 °F 93% 29.94 in 1.5 mi Calm Calm - N/A   Mostly Cloudy
3:15 AM 48.2 °F - 48.2 °F 100% 29.94 in 0.2 mi NNE 4.6 mph - N/A   Overcast
3:35 AM 51.8 °F - 51.8 °F 100% 29.93 in 0.2 mi ENE 4.6 mph - N/A   Overcast
3:55 AM 51.8 °F - 50.0 °F 94% 29.93 in 0.2 mi ENE 4.6 mph - N/A   Overcast
4:15 AM 50.0 °F - 50.0 °F 100% 29.91 in 0.2 mi ENE 5.8 mph - N/A   Overcast
4:35 AM 50.0 °F - 48.2 °F 94% 29.91 in 0.2 mi East 3.5 mph - N/A   Overcast
4:55 AM 50.0 °F - 48.2 °F 94% 29.92 in 0.2 mi Calm Calm - N/A   Overcast
5:15 AM 48.2 °F - 48.2 °F 100% 29.91 in 0.2 mi Calm Calm - N/A   Overcast
5:35 AM 50.0 °F - 48.2 °F 94% 29.91 in 0.2 mi Calm Calm - N/A   Overcast
5:55 AM 50.0 °F - 50.0 °F 100% 29.92 in 0.2 mi WSW 3.5 mph - N/A   Overcast
6:15 AM 51.8 °F - 50.0 °F 94% 29.92 in 0.2 mi WSW 3.5 mph - N/A   Overcast
6:35 AM 51.8 °F - 51.8 °F 100% 29.93 in 0.2 mi WSW 6.9 mph - N/A   Overcast
6:55 AM 51.8 °F - 51.8 °F 100% 29.93 in 0.2 mi SW 3.5 mph - N/A   Overcast
7:15 AM 51.8 °F - 51.8 °F 100% 29.93 in 0.2 mi South 5.8 mph - N/A   Overcast
7:35 AM 51.8 °F - 50.0 °F 94% 29.93 in 0.2 mi South 8.1 mph - N/A   Overcast
7:55 AM 53.6 °F - 51.8 °F 94% 29.94 in 0.2 mi SSW 8.1 mph - N/A   Overcast
8:15 AM 53.6 °F - 53.6 °F 100% 29.94 in 0.5 mi South 5.8 mph - N/A   Overcast
8:35 AM 55.4 °F - 55.4 °F 100% 29.94 in 0.5 mi SSW 9.2 mph - N/A   Overcast
8:55 AM 55.4 °F - 53.6 °F 94% 29.94 in 0.2 mi South 8.1 mph - N/A   Overcast
9:35 AM 57.2 °F - 55.4 °F 94% 29.93 in 10.0 mi SSW 8.1 mph - N/A   Overcast
9:55 AM 57.2 °F - 55.4 °F 94% 29.93 in 5.0 mi South 8.1 mph - N/A   Overcast
10:15 AM 59.0 °F - 55.4 °F 88% 29.93 in 2.0 mi SSW 8.1 mph - N/A   Overcast
10:55 AM 60.8 °F - 55.4 °F 82% 29.93 in 10.0 mi SSW 9.2 mph - N/A   Mostly Cloudy
11:15 AM 62.6 °F - 57.2 °F 82% 29.92 in 10.0 mi SSW 9.2 mph - N/A   Partly Cloudy
11:35 AM 66.2 °F - 57.2 °F 73% 29.92 in 10.0 mi SW 10.4 mph - N/A   Clear
11:55 AM 66.2 °F - 57.2 °F 73% 29.92 in 10.0 mi SSW 12.7 mph - N/A   Clear
12:15 PM 66.2 °F - 57.2 °F 73% 29.91 in 10.0 mi South 12.7 mph 18.4 mph N/A   Clear
12:35 PM 68.0 °F - 57.2 °F 68% 29.90 in 10.0 mi South 12.7 mph - N/A   Clear
12:55 PM 69.8 °F - 59.0 °F 68% 29.90 in 10.0 mi SSW 13.8 mph - N/A   Clear
1:15 PM 69.8 °F - 57.2 °F 64% 29.89 in 10.0 mi South 15.0 mph 18.4 mph N/A   Clear
1:35 PM 69.8 °F - 59.0 °F 68% 29.87 in 10.0 mi South 16.1 mph 21.9 mph N/A   Clear
1:55 PM 69.8 °F - 57.2 °F 64% 29.86 in 10.0 mi South 16.1 mph 21.9 mph N/A   Clear
2:15 PM 71.6 °F - 59.0 °F 64% 29.86 in 10.0 mi South 16.1 mph 20.7 mph N/A   Clear
2:35 PM 69.8 °F - 57.2 °F 64% 29.85 in 10.0 mi South 16.1 mph 21.9 mph N/A   Clear
2:55 PM 69.8 °F - 57.2 °F 64% 29.84 in 10.0 mi South 13.8 mph 21.9 mph N/A   Clear
3:15 PM 69.8 °F - 59.0 °F 68% 29.83 in 10.0 mi South 16.1 mph 20.7 mph N/A   Clear
3:35 PM 68.0 °F - 57.2 °F 68% 29.83 in 10.0 mi South 12.7 mph 20.7 mph N/A   Clear
3:55 PM 68.0 °F - 59.0 °F 73% 29.82 in 10.0 mi South 15.0 mph 18.4 mph N/A   Clear
4:15 PM 66.2 °F - 57.2 °F 73% 29.82 in 10.0 mi SSW 16.1 mph 20.7 mph N/A   Clear
4:35 PM 64.4 °F - 57.2 °F 77% 29.81 in 10.0 mi South 13.8 mph 19.6 mph N/A   Clear
4:55 PM 64.4 °F - 57.2 °F 77% 29.81 in 10.0 mi SSW 12.7 mph 18.4 mph N/A   Clear
5:15 PM 64.4 °F - 57.2 °F 77% 29.80 in 10.0 mi South 11.5 mph - N/A   Clear
5:35 PM 64.4 °F - 57.2 °F 77% 29.79 in 10.0 mi SSW 11.5 mph - N/A   Clear
5:55 PM 64.4 °F - 55.4 °F 73% 29.80 in 10.0 mi SSW 10.4 mph - N/A   Partly Cloudy
6:15 PM 64.4 °F - 53.6 °F 68% 29.81 in 10.0 mi SW 15.0 mph - N/A   Partly Cloudy
6:35 PM 62.6 °F - 55.4 °F 77% 29.81 in 10.0 mi SW 10.4 mph - N/A   Scattered Clouds
6:55 PM 62.6 °F - 55.4 °F 77% 29.82 in 10.0 mi SW 10.4 mph - N/A   Mostly Cloudy
7:15 PM 62.6 °F - 57.2 °F 82% 29.81 in 10.0 mi SSW 11.5 mph - N/A   Mostly Cloudy
7:55 PM 62.6 °F - 55.4 °F 77% 29.80 in 10.0 mi South 11.5 mph - N/A   Mostly Cloudy
8:15 PM 62.6 °F - 55.4 °F 77% 29.80 in 10.0 mi South 10.4 mph - N/A   Scattered Clouds
8:35 PM 62.6 °F - 55.4 °F 77% 29.79 in 10.0 mi South 10.4 mph - N/A   Mostly Cloudy
8:55 PM 60.8 °F - 55.4 °F 82% 29.79 in 10.0 mi SSW 10.4 mph - N/A   Overcast
9:15 PM 60.8 °F - 57.2 °F 88% 29.78 in 10.0 mi SSW 13.8 mph - N/A   Overcast
9:35 PM 60.8 °F - 55.4 °F 82% 29.78 in 10.0 mi SSW 15.0 mph 20.7 mph N/A   Mostly Cloudy
9:55 PM 60.8 °F - 55.4 °F 82% 29.78 in 10.0 mi SSW 12.7 mph 20.7 mph N/A   Scattered Clouds
10:15 PM 60.8 °F - 57.2 °F 88% 29.78 in 10.0 mi SSW 12.7 mph 17.3 mph N/A   Clear
10:35 PM 60.8 °F - 57.2 °F 88% 29.78 in 10.0 mi SW 13.8 mph - N/A   Mostly Cloudy
10:55 PM 60.8 °F - 57.2 °F 88% 29.79 in 10.0 mi SW 11.5 mph - 0.02 in   Overcast
11:15 PM 60.8 °F - 57.2 °F 88% 29.79 in 10.0 mi SW 9.2 mph - 0.01 in Thunderstorm Thunderstorm
11:35 PM 60.8 °F - 57.2 °F 88% 29.78 in 10.0 mi SSW 9.2 mph - 0.01 in Thunderstorm Overcast
11:55 PM 60.8 °F - 57.2 °F 88% 29.78 in 10.0 mi West 5.8 mph - 0.01 in   Overcast